MDT,Max TemperatureF,Mean TemperatureF,Min TemperatureF,Max Dew PointF,MeanDew PointF,Min DewpointF,Max Humidity, Mean Humidity, Min Humidity, Max Sea Level PressureIn, Mean Sea Level PressureIn, Min Sea Level PressureIn, Max VisibilityMiles, Mean VisibilityMiles, Min VisibilityMiles, Max Wind SpeedMPH, Mean Wind SpeedMPH, Max Gust SpeedMPH,PrecipitationIn, CloudCover, Events, WindDirDegrees
2014-3-1,58,50,41,41,36,28,96,65,33,29.78,29.67,29.59,10,8,2,30,13,45,0.30,4,Rain,229
2014-3-2,57,45,33,37,32,23,92,60,27,30.03,29.93,29.79,10,10,10,14,5,18,0.00,2,,286
2014-3-3,60,47,34,36,32,28,82,57,31,30.11,30.02,29.94,10,10,10,14,3,19,0.00,1,,285
2014-3-4,59,46,33,34,30,26,89,61,33,30.07,29.92,29.82,10,10,10,24,7,30,0.00,1,,300
2014-3-5,59,45,30,29,25,18,78,50,21,30.21,30.13,30.07,10,10,10,12,2,12,0.00,0,,279
2014-3-6,64,50,35,29,26,17,70,44,17,30.12,29.96,29.77,10,10,10,21,5,25,0.00,1,,201
2014-3-7,57,49,40,40,33,26,93,63,32,30.12,29.93,29.77,10,10,10,32,8,40,0.01,5,Rain,359
2014-3-8,58,45,32,32,26,21,82,54,25,30.35,30.25,30.12,10,10,10,17,6,25,0.00,1,,340
2014-3-9,61,45,29,28,24,19,75,49,22,30.39,30.28,30.15,10,10,10,12,3,13,0.00,0,,226
2014-3-10,69,52,34,28,19,3,64,36,8,30.15,29.93,29.69,10,10,10,26,8,32,0.00,0,,190
2014-3-11,53,44,34,26,16,11,42,32,21,30.24,30.02,29.77,10,10,10,33,13,39,T,2,Rain,326
2014-3-12,55,41,26,13,7,-3,47,29,10,30.38,30.28,30.19,10,10,10,20,5,28,0.00,0,,359
2014-3-13,59,42,26,19,14,7,51,33,20,30.18,30.06,29.93,10,10,10,9,3,,0.00,1,,238
2014-3-14,62,45,27,22,13,-4,58,33,7,30.07,29.99,29.94,10,10,10,14,3,19,0.00,0,,276
2014-3-15,59,46,33,22,13,-2,40,25,9,30.33,30.13,29.97,10,10,10,36,16,42,0.00,1,,337
2014-3-16,62,44,25,16,12,9,50,32,13,30.41,30.28,30.08,10,10,10,9,2,11,0.00,0,,187
2014-3-17,72,54,35,20,13,2,48,28,7,30.03,29.69,29.33,10,10,10,46,17,56,0.00,0,,284
2014-3-18,50,41,31,16,10,5,44,30,16,30.08,29.92,29.72,10,10,10,28,8,35,0.00,0,,289
2014-3-19,53,41,28,19,13,7,50,34,17,30.27,30.18,30.09,10,10,10,17,4,22,0.00,0,,278
2014-3-20,59,43,26,15,10,6,50,32,13,30.17,30.05,29.91,10,10,10,10,3,14,0.00,0,,309
2014-3-21,65,50,35,16,13,8,44,28,11,29.94,29.87,29.80,10,10,10,15,3,17,0.00,0,,250
2014-3-22,61,51,41,27,18,0,45,27,9,30.10,29.92,29.75,10,10,10,29,11,35,0.00,2,,297
2014-3-23,63,48,33,26,16,0,69,40,10,30.19,30.10,30.00,10,10,10,13,4,18,0.00,0,,262
2014-3-24,66,47,27,9,4,2,37,23,8,30.19,30.12,30.06,10,10,10,20,7,34,0.00,0,,277
2014-3-25,71,50,29,13,8,5,42,25,8,30.09,29.91,29.62,10,10,10,12,3,18,0.00,0,,160
2014-3-26,63,53,42,28,20,8,49,32,14,29.59,29.46,29.31,10,10,7,44,13,58,T,3,Rain,221
2014-3-27,61,49,37,25,20,14,59,38,17,29.89,29.72,29.56,10,10,10,33,12,41,0.00,4,,269
2014-3-28,59,45,31,22,15,10,56,36,15,30.14,30.07,29.91,10,10,10,21,4,31,0.00,2,,312
2014-3-29,69,50,30,15,13,8,38,25,11,30.17,30.02,29.81,10,10,10,22,9,28,0.00,0,,180
2014-3-30,70,55,40,32,21,15,53,34,14,29.86,29.64,29.40,10,10,6,44,18,71,T,2,Rain-Thunderstorm,218
2014-3-31,58,43,28,21,14,5,59,36,12,30.04,29.90,29.70,10,10,10,18,5,24,0.00,2,,237